Regional Weather Roundup
Issued by NWS

Home | Current Version | Previous Version | Graphics & Text | Print | Product List | Glossary On
Versions: 1 2 3 4 5 6 7 8 9 10 11 12 13 14 15 16 17 18 19 20 21 22 23 24 25 26 27 28 29 30 31 32 33 34 35 36 37 38 39 40 41 42 43 44 45 46 47 48 49 50
000
ASUS43 KMKX 241800
RWRWI

WISCONSIN REGIONAL WEATHER ROUNDUP
NATIONAL WEATHER SERVICE MILWAUKEE/SULLIVAN WI
100 PM CDT SUN JUL 24 2016

NOTE: "FAIR" INDICATES FEW OR NO CLOUDS BELOW 12,000 FEET WITH NO
SIGNIFICANT WEATHER AND/OR OBSTRUCTIONS TO VISIBILITY.

WIZ001-002-006>008-014>016-023>028-241900-
NORTHWEST WISCONSIN

CITY           SKY/WX    TMP DP  RH WIND       PRES   REMARKS
SUPERIOR ARPT  MOSUNNY   80  64  56 W13G21    29.80R HX  82
ASHLAND        MOSUNNY   84  63  49 W15       29.79R HX  85
6HR MIN TEMP:  69; 6HR MAX TEMP:  84;

HAYWARD        MOSUNNY   80  64  58 W10       29.84R HX  82
6HR MIN TEMP:  67; 6HR MAX TEMP:  80;

SIREN          PTSUNNY   79  63  57 W17G24    29.87R HX  80
CUMBERLAND     MOSUNNY   79  59  50 W17       29.87R HX  80
RICE LAKE      MOSUNNY   79  64  59 W12G22    29.88R HX  81
CHETEK         MOSUNNY   82  66  58 W9G16     29.86R HX  83
LADYSMITH      MOSUNNY   81  64  57 W13       29.87R HX  83
EAU CLAIRE     NOT AVBL
MENOMONIE      MOSUNNY   82  74  76 W13G18    29.86R HX  87
NEW RICHMOND   SUNNY     82  62  50 W13       29.87S HX  83
OSCEOLA        SUNNY     81  63  53 W16       29.91R HX  82
$$

WIZ003>005-009-010-017-018-241900-
NORTH CENTRAL WISCONSIN

CITY           SKY/WX    TMP DP  RH WIND       PRES   REMARKS
MANITOWISH WTR PTSUNNY   78  70  77 W12       29.83R HX  80
ARBOR VITAE    PTSUNNY   77  69  75 W8        29.83S
WOODRUFF       PTSUNNY   77  69  75 W8        29.83S
RHINELANDER    CLOUDY    78  69  73 W7        29.84S HX  80
6HR MIN TEMP:  72; 6HR MAX TEMP:  79; 6HR PCP:  0.01;

EAGLE RIVER    CLOUDY    75  67  75 W12       29.83R
LAND O LAKES   PTSUNNY   80  68  67 SW12      29.83R HX  82
PHILLIPS       MOSUNNY   77  69  74 NW6       29.83S
TOMAHAWK       CLOUDY    77  69  77 W7        29.84S
MEDFORD        PTSUNNY   78  73  85 W10       29.84S HX  80
MERRILL        CLOUDY    76  73  91 W5        29.84R
$$

WIZ029-030-035-036-043>047-241900-
CENTRAL WISCONSIN

CITY           SKY/WX    TMP DP  RH WIND       PRES   REMARKS
WAUSAU         CLOUDY    76  72  87 W10       29.82S
6HR MIN TEMP:  70; 6HR MAX TEMP:  76;

MOSINEE        CLOUDY    75  73  94 W7        29.85R
MARSHFIELD     CLOUDY    80  71  74 W8        29.86R HX  84
6HR MIN TEMP:  72; 6HR MAX TEMP:  80; 6HR PCP: TRACE;

STEVENS POINT  CLOUDY    75  74  95 W7        29.84R
WAUPACA        CLOUDY    85  80  86 SW7       29.81S HX  98
WAUTOMA        CLOUDY    85  78  80 SW10      29.82S HX  96
6HR MIN TEMP:  72; 6HR MAX TEMP:  86;

WISC RAPIDS    MOSUNNY   85  73  67 NW8       29.85R HX  91
6HR MIN TEMP:  73; 6HR MAX TEMP:  86; 6HR PCP: TRACE;

CAMP DOUGLAS   MOSUNNY   87  75  68 W8        29.83R HX  96
6HR MIN TEMP:  75; 6HR MAX TEMP:  87; 6HR PCP: TRACE;

$$

WIZ011>013-019>022-031-037>040-048>050-241900-
NORTHEAST WISCONSIN

CITY           SKY/WX    TMP DP  RH WIND       PRES   REMARKS
ANTIGO         CLOUDY    73  73 100 W5        29.84R FOG
SHAWANO        CLOUDY    79  74  86 S3        29.81R HX  82
OCONTO         CLOUDY    80  80 100 SW8G16    29.79S HX  86
STURGEON BAY   CLOUDY    75  72  90 S10       29.81R
6HR MIN TEMP:  71; 6HR MAX TEMP:  81;

GREEN BAY      CLOUDY    76  76 100 S8        29.81R
6HR MIN TEMP:  72; 6HR MAX TEMP:  76; 6HR PCP: TRACE;

MANITOWOC      CLOUDY    72  70  94 S16       29.83F FOG
APPLETON       CLOUDY    79  79 100 S5        29.81S HX  83
CLINTONVILLE   CLOUDY    79  73  83 SW9       29.81S HX  82
OSHKOSH        CLOUDY    83  77  82 SW6       29.81F HX  92
6HR MIN TEMP:  72; 6HR MAX TEMP:  83; 6HR PCP:  0.06;

$$

WIZ032>034-041-042-053>061-241900-
SOUTHWEST WISCONSIN

CITY           SKY/WX    TMP DP  RH WIND       PRES   REMARKS
LA CROSSE      SUNNY     88  62  41 NW18      29.85R HX  88
6HR MIN TEMP:  77; 6HR MAX TEMP:  88;

SPARTA         PTSUNNY   85  74  68 W9G17     29.85R HX  93
VIROQUA        PTSUNNY   84  75  74 W8        29.88R HX  92
BOSCOBEL       CLOUDY    87  78  74 W8        29.85S HX 100
6HR MIN TEMP:  79; 6HR MAX TEMP:  87;

PRAIRIE DU CHI PTSUNNY   86  76  71 W7        29.85R HX  95
PLATTEVILLE    CLOUDY    84  81  89 W8        29.87S HX  99
$$

WIZ056-057-062-063-064-067-068-241900-
SOUTH CENTRAL WISCONSIN

CITY           SKY/WX    TMP DP  RH WIND       PRES   REMARKS
REEDSBURG      CLOUDY   N/A N/A N/A W9        29.84S
BARABOO/DELLS  PTSUNNY   83  76  80 W7        29.84S HX  92
LONE ROCK      NOT AVBL
MINERAL POINT  CLOUDY    86  79  79 W7        29.87S HX  99
MADISON        PTSUNNY   85  78  80 SW5       29.83F HX  96
6HR MIN TEMP:  75; 6HR MAX TEMP:  86;

MIDDLETON      PTSUNNY   88  78  72 W8        29.85S HX 102
WATERTOWN      CLOUDY    87  79  76 SW10      29.84S HX 101
MONROE         PTSUNNY   88  77  70 SW15      29.87S HX 100
JANESVILLE     MOSUNNY   91  77  62 SW13      29.85S HX 105
$$

WIZ051-052-058>065-066-070>072-241900-
SOUTHEAST WISCONSIN

CITY           SKY/WX    TMP DP  RH WIND       PRES   REMARKS
MILWAUKEE      PTSUNNY   91  76  61 SW20G28   29.84S HX 103
6HR MIN TEMP:  72; 6HR MAX TEMP:  91; 6HR PCP:  0.01;

WAUKESHA       PTSUNNY   84  75  74 SW12      29.86S HX  92
MILWAUKEE/TIMM PTSUNNY   88  73  62 SW14G21   29.85S HX  96
RACINE         CLOUDY    81  72  74 S10       29.86F HX  85
6HR MIN TEMP:  72; 6HR MAX TEMP:  86; 6HR PCP:  0.01;

BURLINGTON     CLOUDY    92  85  79 S10G21    29.86S HX 120
KENOSHA        CLOUDY    90  77  65 SW14G22   29.86S HX 103
6HR MIN TEMP:  75; 6HR MAX TEMP:  91; 6HR PCP: TRACE;

FOND DU LAC    CLOUDY    83  78  85 SW5       29.83S HX  93
6HR MIN TEMP:  74; 6HR MAX TEMP:  83;

SHEBOYGAN      CLOUDY    74  71  91 S6        29.84S FOG
6HR MIN TEMP:  71; 6HR MAX TEMP:  74; 6HR PCP:  0.03;

WEST BEND      CLOUDY    86  77  74 SW8       29.84S HX  97
JUNEAU         CLOUDY    83  78  85 SW10      29.86R HX  93
$$

LSZ147-162-241900-
LAKE SUPERIOR

STATION/POSITION TIME  TEMP    WIND        PRES    WAVE
                       AIR SEA DIR/SP/G            HT/PER
                 (UTC) (F)     (DEG/KT/KT) (MB)    (FT/S)
W MID LAKE BUOY  1650   61 58  250/ 10/ 12 1006.6R   1/ 2
DEVILS ISLAND    1700   69     240/ 17/ 19 1007.4R
PORT WING        1600   73     260/  9/ 11 1008.1F
SAXON HARBOR     1700   80     280/  7/ 13 1007.8S
$$

LMZ867-665-643>646-241900-
LAKE MICHIGAN

STATION/POSITION TIME  TEMP    WIND        PRES    WAVE
                       AIR SEA DIR/SP/G            HT/PER
                 (UTC) (F)     (DEG/KT/KT) (MB)    (FT/S)
CHAMBERS ISLAND  1700   74     200/  5/ 10 1008.8S
S GREEN BAY BUOY 1730   76 75  210/ 10/ 14   N/A
N MID LAKE BUOY  1650   70 69  200/ 17/ 21 1008.3F   4/ 5
NORTHPORT PIER   1700   72     160/  6/ 17 1009.1S
KEWAUNEE LAKESHO 1700   67     180/ 19/ 22 1009.4R
SHEBOYGAN LAKESH 1700   65     180/ 13/ 14 1010.9S
PORT WASHINGTON  1700   67     190/  7/  9 1011.5
MILWAUKEE LAKESH 1710   64     140/ 18/ 19   N/A
S MID LAKE BUOY  1650   75 72  150/ 17/ 21 1011.3F   3/ 5
KENOSHA   LAKESH 1700          170/ 13/ 18 1010.8F
$$

TC  - TEMPERATURE IN CELSIUS
VSB - VISIBILITY IN STATUTE MILES
WCI - WIND CHILL INDEX
HX  - HEAT INDEX




USA.gov is the U.S. government's official web portal to all federal, state and local government web resources and services.